Wise, VA

5:07 AM EDT on July 23, 2017 (GMT -0400)
Lonesome Pine

Weather History for KLNP - January, 2014

Change the Weather History Date:

Sunday, January 19, 2014

  Actual Average Record
Temperature  
Mean Temperature 34 °F -  
Max Temperature 37 °F 37 °F 57 °F (2017)
Min Temperature 30 °F 21 °F 8 °F (2016)
Degree Days  
Heating Degree Days 32    
Moisture  
Dew Point 25 °F    
Average Humidity 74    
Maximum Humidity 93    
Minimum Humidity 48    
Precipitation  
Precipitation 0.00 in - - ()
Sea Level Pressure  
Sea Level Pressure 29.87 in    
Wind  
Wind Speed 14 mph (SW)    
Max Wind Speed 22 mph    
Max Gust Speed 30 mph    
Visibility 10 miles    
Events Snow    
Averages and records for this station are not official NWS values.
T = Trace of Precipitation, MM = Missing Value Source: NWS Daily Summary

Daily Weather History Graph

Daily Weather History Graph

Search for Another Location

Airport or City:

Trip Planner

Search our weather history database for the weather conditions in past years. The results will help you decide how hot, cold, wet, or windy it might be!

Date:

Astronomy

Jan. 19, 2014 Rise Set
Actual Time 7:40 AM EST 5:41 PM EST
Civil Twilight 7:12 AM EST 6:09 PM EST
Nautical Twilight 6:41 AM EST 6:41 PM EST
Astronomical Twilight 6:10 AM EST 7:12 PM EST
Moon 9:11 PM EST (1/19) 9:15 AM EST (1/19)
Length of Visible Light 10h 56m
Length of Day
10h 00m
Waning Gibbous, 89% of the Moon is Illuminated
Jan 19
Waning Gibbous
Jan 24
Last Quarter
Jan 30
New
Feb 6
First Quarter
Feb 14
Full

Hourly Weather History & Observations

Time (EST) Temp. Windchill Dew Point Humidity Pressure Visibility Wind Dir Wind Speed Gust Speed Precip Events Conditions
12:15 AM 30.2 °F 17.8 °F 14.0 °F 51% 29.80 in 10.0 mi SW 19.6 mph 26.5 mph N/A   Overcast
12:35 AM 30.2 °F 19.3 °F 14.0 °F 51% 29.80 in 10.0 mi WSW 15.0 mph 25.3 mph N/A   Scattered Clouds
12:55 AM 32.0 °F 21.6 °F 14.0 °F 48% 29.79 in 10.0 mi WSW 15.0 mph 27.6 mph N/A   Clear
1:15 AM 32.0 °F 20.1 °F 14.0 °F 48% 29.79 in 10.0 mi WSW 19.6 mph 26.5 mph N/A   Scattered Clouds
1:35 AM 32.0 °F 19.5 °F 15.8 °F 51% 29.78 in 10.0 mi SW 21.9 mph 26.5 mph N/A   Mostly Cloudy
1:55 AM 32.0 °F 21.2 °F 15.8 °F 51% 29.78 in 10.0 mi SW 16.1 mph 24.2 mph N/A   Mostly Cloudy
2:15 AM 32.0 °F 21.6 °F 15.8 °F 51% 29.78 in 10.0 mi SW 15.0 mph 23.0 mph N/A   Scattered Clouds
2:35 AM 32.0 °F 20.8 °F 17.6 °F 55% 29.78 in 10.0 mi SW 17.3 mph - N/A   Mostly Cloudy
2:55 AM 32.0 °F 20.8 °F 17.6 °F 55% 29.79 in 10.0 mi SW 17.3 mph 24.2 mph N/A   Overcast
3:15 AM 32.0 °F 21.6 °F 17.6 °F 55% 29.79 in 10.0 mi SW 15.0 mph 21.9 mph N/A   Overcast
3:35 AM 32.0 °F 21.2 °F 17.6 °F 55% 29.80 in 10.0 mi SW 16.1 mph 21.9 mph N/A   Overcast
3:55 AM 32.0 °F 21.6 °F 17.6 °F 55% 29.79 in 10.0 mi SW 15.0 mph 23.0 mph N/A   Overcast
4:15 AM 32.0 °F 22.5 °F 17.6 °F 55% 29.79 in 10.0 mi WSW 12.7 mph 18.4 mph N/A   Overcast
4:35 AM 32.0 °F 22.5 °F 19.4 °F 60% 29.79 in 10.0 mi SW 12.7 mph 18.4 mph N/A   Overcast
4:55 AM 32.0 °F 22.1 °F 19.4 °F 60% 29.80 in 10.0 mi WSW 13.8 mph 18.4 mph N/A   Overcast
5:15 AM 32.0 °F 23.6 °F 21.2 °F 64% 29.80 in 10.0 mi SW 10.4 mph - N/A   Overcast
5:35 AM 32.0 °F 23.0 °F 21.2 °F 64% 29.80 in 10.0 mi SW 11.5 mph - N/A   Overcast
5:55 AM 32.0 °F 21.6 °F 23.0 °F 69% 29.81 in 7.0 mi SW 15.0 mph 18.4 mph N/A Snow Light Snow
6:15 AM 30.2 °F 21.3 °F 24.8 °F 80% 29.81 in 7.0 mi SW 10.4 mph 18.4 mph N/A Snow Light Snow
6:35 AM 30.2 °F 21.3 °F 26.6 °F 86% 29.81 in 10.0 mi SW 10.4 mph 13.8 mph N/A Snow Light Snow
6:55 AM 30.2 °F 21.3 °F 26.6 °F 86% 29.82 in 10.0 mi SW 10.4 mph 16.1 mph N/A   Overcast
7:15 AM 30.2 °F 20.2 °F 26.6 °F 86% 29.83 in 10.0 mi WSW 12.7 mph 18.4 mph N/A   Overcast
7:35 AM 30.2 °F 20.8 °F 28.4 °F 93% 29.84 in 10.0 mi WSW 11.5 mph - N/A Snow Light Snow
7:55 AM 30.2 °F 21.9 °F 28.4 °F 93% 29.84 in 7.0 mi WSW 9.2 mph - N/A Snow Light Snow
8:15 AM 30.2 °F 22.6 °F 28.4 °F 93% 29.85 in 10.0 mi WSW 8.1 mph - N/A   Overcast
8:35 AM 32.0 °F 24.8 °F 28.4 °F 87% 29.86 in 10.0 mi WSW 8.1 mph - N/A   Overcast
8:50 AM 32.0 °F 25.6 °F 28.4 °F 87% 29.88 in 10.0 mi West 6.9 mph - N/A   Overcast
9:15 AM 32.0 °F 25.6 °F 28.4 °F 87% 29.88 in 10.0 mi WSW 6.9 mph - N/A   Overcast
9:35 AM 32.0 °F 21.2 °F 30.2 °F 93% 29.89 in 10.0 mi WSW 16.1 mph 24.2 mph N/A   Overcast
9:55 AM 32.0 °F 23.0 °F 30.2 °F 93% 29.91 in 10.0 mi West 11.5 mph - N/A   Overcast
10:15 AM 32.0 °F 24.8 °F 30.2 °F 93% 29.91 in 10.0 mi West 8.1 mph - N/A   Overcast
10:35 AM 32.0 °F 23.0 °F 30.2 °F 93% 29.92 in 10.0 mi West 11.5 mph 17.3 mph N/A   Overcast
10:55 AM 32.0 °F 24.8 °F 30.2 °F 93% 29.92 in 10.0 mi WSW 8.1 mph 17.3 mph N/A   Overcast
11:15 AM 32.0 °F 25.6 °F 30.2 °F 93% 29.92 in 10.0 mi West 6.9 mph 19.6 mph N/A   Overcast
11:35 AM 33.8 °F 24.8 °F 28.4 °F 81% 29.93 in 10.0 mi West 12.7 mph 19.6 mph N/A   Overcast
11:55 AM 33.8 °F 25.3 °F 28.4 °F 81% 29.93 in 10.0 mi West 11.5 mph 16.1 mph N/A   Overcast
12:15 PM 33.8 °F 24.8 °F 28.4 °F 81% 29.93 in 10.0 mi West 12.7 mph 20.7 mph N/A   Overcast
12:35 PM 33.8 °F 23.2 °F 28.4 °F 81% 29.92 in 10.0 mi West 17.3 mph 27.6 mph N/A   Overcast
12:55 PM 33.8 °F 24.3 °F 28.4 °F 81% 29.92 in 10.0 mi WSW 13.8 mph 20.7 mph N/A   Overcast
1:15 PM 33.8 °F 24.3 °F 28.4 °F 81% 29.91 in 10.0 mi West 13.8 mph 20.7 mph N/A   Overcast
1:35 PM 33.8 °F 24.3 °F 26.6 °F 75% 29.92 in 10.0 mi West 13.8 mph 20.7 mph N/A   Overcast
1:55 PM 37.4 °F 29.8 °F 28.4 °F 70% 29.91 in 10.0 mi WSW 11.5 mph 18.4 mph N/A   Overcast
2:15 PM 35.6 °F 27.5 °F 28.4 °F 75% 29.91 in 10.0 mi West 11.5 mph - N/A   Mostly Cloudy
2:35 PM 37.4 °F 28.9 °F 28.4 °F 70% 29.91 in 10.0 mi SW 13.8 mph 21.9 mph N/A   Scattered Clouds
2:55 PM 37.4 °F 29.3 °F 28.4 °F 70% 29.91 in 10.0 mi SW 12.7 mph 18.4 mph N/A   Clear
3:15 PM 37.4 °F 28.5 °F 28.4 °F 70% 29.91 in 10.0 mi SW 15.0 mph 19.6 mph N/A   Clear
3:35 PM 37.4 °F 28.9 °F 28.4 °F 70% 29.91 in 10.0 mi SSW 13.8 mph - N/A   Clear
3:55 PM 37.4 °F 28.9 °F 28.4 °F 70% 29.92 in 10.0 mi SW 13.8 mph 17.3 mph N/A   Clear
4:15 PM 37.4 °F 28.9 °F 28.4 °F 70% 29.92 in 10.0 mi WSW 13.8 mph 20.7 mph N/A   Clear
4:35 PM 37.4 °F 29.3 °F 28.4 °F 70% 29.92 in 10.0 mi SW 12.7 mph - N/A   Clear
4:55 PM 37.4 °F 29.3 °F 28.4 °F 70% 29.92 in 10.0 mi SW 12.7 mph - N/A   Clear
5:15 PM 35.6 °F 27.5 °F 28.4 °F 75% 29.93 in 10.0 mi SW 11.5 mph 16.1 mph N/A   Clear
5:35 PM 35.6 °F 26.2 °F 26.6 °F 70% 29.92 in 10.0 mi SW 15.0 mph - N/A   Clear
5:55 PM 33.8 °F 26.4 °F 26.6 °F 75% 29.93 in 10.0 mi SW 9.2 mph - N/A   Clear
6:15 PM 33.8 °F 25.3 °F 26.6 °F 75% 29.93 in 10.0 mi SW 11.5 mph 18.4 mph N/A   Clear
6:35 PM 33.8 °F 24.8 °F 26.6 °F 75% 29.92 in 10.0 mi SW 12.7 mph 17.3 mph N/A   Clear
6:55 PM 33.8 °F 24.8 °F 26.6 °F 75% 29.91 in 10.0 mi SW 12.7 mph 19.6 mph N/A   Clear
7:15 PM 33.8 °F 25.3 °F 26.6 °F 75% 29.91 in 10.0 mi SW 11.5 mph - N/A   Clear
7:35 PM 33.8 °F 26.4 °F 26.6 °F 75% 29.91 in 10.0 mi SW 9.2 mph - N/A   Clear
7:55 PM 33.8 °F 25.3 °F 26.6 °F 75% 29.91 in 10.0 mi SW 11.5 mph 17.3 mph N/A   Clear
8:15 PM 33.8 °F 23.5 °F 26.6 °F 75% 29.91 in 10.0 mi SW 16.1 mph 20.7 mph N/A   Clear
8:35 PM 33.8 °F 23.2 °F 26.6 °F 75% 29.91 in 10.0 mi SW 17.3 mph 23.0 mph N/A   Clear
8:55 PM 33.8 °F 22.8 °F 28.4 °F 81% 29.91 in 10.0 mi WSW 18.4 mph 23.0 mph N/A   Clear
9:15 PM 33.8 °F 22.5 °F 28.4 °F 81% 29.92 in 10.0 mi SW 19.6 mph 24.2 mph N/A   Clear
9:35 PM 33.8 °F 24.8 °F 28.4 °F 81% 29.92 in 10.0 mi SW 12.7 mph - N/A   Clear
9:55 PM 33.8 °F 24.3 °F 28.4 °F 81% 29.91 in 10.0 mi SW 13.8 mph - N/A   Clear
10:15 PM 33.8 °F 25.3 °F 26.6 °F 75% 29.91 in 10.0 mi SW 11.5 mph 20.7 mph N/A   Clear
10:35 PM 33.8 °F 24.3 °F 26.6 °F 75% 29.91 in 10.0 mi SW 13.8 mph 19.6 mph N/A   Clear
10:55 PM 33.8 °F 23.2 °F 28.4 °F 81% 29.90 in 10.0 mi SW 17.3 mph 21.9 mph N/A   Clear
11:15 PM 33.8 °F 22.5 °F 28.4 °F 81% 29.89 in 10.0 mi SW 19.6 mph 26.5 mph N/A   Clear
11:35 PM 33.8 °F 21.9 °F 28.4 °F 81% 29.88 in 10.0 mi SW 21.9 mph 27.6 mph N/A   Clear
11:55 PM 33.8 °F 22.2 °F 28.4 °F 81% 29.87 in 10.0 mi SW 20.7 mph 29.9 mph N/A   Clear